Location: Unspecified
(0.0000°N, 0.0000°E)
Time: 11:49:21
(UTC+02:00)

Milstar 3 - Visible Passes

Search period start: 27 August 2016 00:00
Search period end: 06 September 2016 00:00
Orbit: 1095 x 5150 km, 28.2° (Epoch: 05 August)

Date Brightness Start Highest point End Pass type
(mag) Time Alt. Az. Time Alt. Az. Time Alt. Az.
27 Aug 6.3 01:08:49 10° W 01:33:05 41° NNW 02:02:54 10° NE visible
27 Aug 6.5 04:09:31 10° NW 04:37:56 34° N 04:58:20 10° ENE visible
27 Aug 5.7 07:10:31 10° NW 07:35:26 52° NNE 07:48:09 10° E visible
27 Aug 5.0 21:16:49 10° WSW 21:30:32 89° NNW 21:58:32 10° ENE visible
28 Aug 6.1 00:03:54 10° W 00:24:58 47° NNW 00:56:12 10° NE visible
28 Aug 6.5 03:00:58 10° WNW 03:28:52 34° N 03:53:01 10° ENE visible
28 Aug 6.0 06:02:43 10° NW 06:30:09 44° NNE 06:45:27 10° E visible
28 Aug 4.7 20:15:29 10° SW 20:26:58 72° SSE 20:50:39 10° ENE visible
28 Aug 5.7 23:00:17 10° W 23:18:06 56° NNW 23:49:03 10° NE visible
29 Aug 6.5 01:53:30 10° WNW 02:19:17 36° N 02:46:47 10° NE visible
29 Aug 6.3 04:54:32 10° NW 05:23:29 39° NNE 05:41:52 10° ENE visible
29 Aug 5.3 21:57:39 10° WSW 22:12:33 67° NNW 22:41:38 10° NE visible
30 Aug 6.3 00:47:27 10° WNW 01:10:09 39° NNW 01:39:50 10° NE visible
30 Aug 6.5 03:46:21 10° NW 04:15:24 36° N 04:37:14 10° ENE visible
30 Aug 5.6 06:45:58 10° NW 07:13:21 58° NNE 07:27:21 10° E visible
30 Aug 4.9 20:55:46 10° WSW 21:08:13 82° NNW 21:34:06 10° ENE visible
30 Aug 6.1 23:42:47 10° W 00:02:09 44° NNW 00:32:22 10° NE visible
31 Aug 6.5 02:38:39 10° WNW 03:06:09 35° N 03:31:24 10° ENE visible
31 Aug 6.0 05:38:20 10° NW 06:07:49 49° NNE 06:24:37 10° E visible
31 Aug 4.6 19:54:28 10° SW 20:04:56 78° SSE 20:26:37 10° ENE visible
31 Aug 5.8 22:39:16 10° W 22:55:31 50° NNW 23:24:42 10° NE visible
01 Sep 6.5 01:31:52 10° WNW 01:56:30 35° N 02:24:25 10° ENE visible
01 Sep 6.3 04:30:41 10° NW 05:00:55 43° NNE 05:20:55 10° E visible
01 Sep 5.2 07:28:59 10° NW 07:55:33 78° NNE 08:08:24 10° ESE visible
01 Sep 5.3 21:36:42 10° WSW 21:50:14 60° NNW 22:17:05 10° NE visible
02 Sep 6.4 00:26:16 10° WNW 00:47:26 37° N 01:16:36 10° NE visible
02 Sep 6.4 03:23:18 10° NW 03:52:40 38° NNE 04:15:59 10° ENE visible
02 Sep 5.6 06:21:27 10° NW 06:50:59 64° NNE 07:06:24 10° ESE visible
02 Sep 4.9 20:34:51 10° WSW 20:46:10 74° NNW 21:09:43 10° NE visible
02 Sep 6.1 23:21:50 10° W 23:39:37 40° NNW 00:08:23 10° NE visible
03 Sep 6.5 02:16:27 10° NW 02:43:22 35° N 03:09:39 10° ENE visible
03 Sep 6.0 05:14:03 10° NW 05:45:11 54° NNE 06:03:35 10° E visible
03 Sep 5.8 22:18:27 10° W 22:33:14 45° NNW 23:00:15 10° NE visible
04 Sep 6.5 01:10:22 10° WNW 01:33:49 34° N 02:01:57 10° ENE visible
04 Sep 6.2 04:06:59 10° NW 04:38:05 46° NNE 04:59:45 10° E visible
04 Sep 5.3 07:04:30 10° WNW 07:33:10 85° NNE 07:47:22 10° ESE visible
04 Sep 5.3 21:15:54 10° W 21:28:12 54° NNW 21:52:34 10° NE visible
05 Sep 6.3 00:05:14 10° WNW 00:24:55 35° N 00:53:16 10° NE visible
05 Sep 6.4 03:00:22 10° NW 03:29:44 40° NNE 03:54:33 10° E visible
05 Sep 5.6 05:56:59 10° NW 06:28:19 70° NNE 06:45:17 10° ESE visible
05 Sep 4.9 20:14:02 10° WSW 20:24:21 66° NNW 20:45:28 10° NE visible
05 Sep 6.1 23:01:04 10° WNW 23:17:20 37° N 23:44:19 10° NE visible
